Weather History for Duluth Sky Harbor, MN

Change the Weather History Date:

Monday, November 25, 2013

  Actual Average Record
Temperature  
Mean Temperature 32 °F -  
Max Temperature 37 °F 34 °F 51 °F (1998)
Min Temperature 26 °F 19 °F -10 °F (1977)
Degree Days  
Heating Degree Days 34    
Moisture  
Dew Point 23 °F    
Average Humidity 65    
Maximum Humidity 81    
Minimum Humidity 55    
Precipitation  
Precipitation 0.00 in - - ()
Sea Level Pressure  
Sea Level Pressure 29.84 in    
Wind  
Wind Speed 20 mph (WSW)    
Max Wind Speed 28 mph    
Max Gust Speed 34 mph    
Visibility 10 miles    
Events Snow    
Averages and records for this station are not official NWS values.
T = Trace of Precipitation, MM = Missing Value Source: NWS Daily Summary

Daily Weather History Graph

Daily Weather History Graph

Search for Another Location

Airport:

Trip Planner

Search our weather history database for the weather conditions in past years. The results will help you decide how hot, cold, wet, or windy it might be!

Date:

Astronomy

Nov. 25, 2013 Rise Set
Actual Time 7:24 AM CST 4:25 PM CST
Civil Twilight 6:51 AM CST 4:59 PM CST
Nautical Twilight 6:13 AM CST 5:36 PM CST
Astronomical Twilight 5:37 AM CST 6:12 PM CST
Moon No Moon Rise 12:27 PM CST (11/25)
Length of Visible Light 10h 08m
Length of Day
9h 00m
Waning Gibbous, 51% of the Moon is Illuminated
Nov 25
Waning Gibbous
Nov 25
Last Quarter
Dec 2
New
Dec 9
First Quarter
Dec 17
Full

Hourly Weather History & Observations

Time (CST) Temp. Windchill Dew Point Humidity Pressure Visibility Wind Dir Wind Speed Gust Speed Precip Events Conditions
12:14 AM 32.0 °F 19.2 °F 19.4 °F 60% 29.76 in 10.0 mi SSW 23.0 mph 34.5 mph N/A   Overcast
12:33 AM 32.0 °F 18.1 °F 17.6 °F 55% 29.75 in 10.0 mi SSW 27.6 mph 32.2 mph N/A   Mostly Cloudy
12:53 AM 32.0 °F 18.9 °F 19.4 °F 60% 29.75 in 10.0 mi SW 24.2 mph 33.4 mph N/A   Overcast
1:13 AM 32.0 °F 19.5 °F 19.4 °F 60% 29.76 in 10.0 mi SW 21.9 mph 31.1 mph N/A   Overcast
1:33 AM 33.8 °F 21.3 °F 19.4 °F 56% 29.76 in 10.0 mi SW 24.2 mph 33.4 mph N/A   Overcast
1:53 AM 33.8 °F 22.2 °F 19.4 °F 56% 29.76 in 10.0 mi SW 20.7 mph 31.1 mph N/A   Overcast
2:13 AM 33.8 °F 21.6 °F 19.4 °F 56% 29.75 in 10.0 mi SW 23.0 mph 27.6 mph N/A   Overcast
2:34 AM 32.0 °F 18.9 °F 19.4 °F 60% 29.73 in 10.0 mi SSW 24.2 mph 27.6 mph N/A   Scattered Clouds
2:53 AM 32.0 °F 19.5 °F 21.2 °F 64% 29.74 in 10.0 mi SW 21.9 mph 25.3 mph N/A   Clear
3:14 AM 32.0 °F 19.8 °F 21.2 °F 64% 29.73 in 10.0 mi SW 20.7 mph 26.5 mph N/A   Clear
3:33 AM 32.0 °F 20.5 °F 21.2 °F 64% 29.74 in 10.0 mi SW 18.4 mph - N/A   Clear
3:54 AM 33.8 °F 22.2 °F 21.2 °F 60% 29.75 in 10.0 mi SW 20.7 mph 28.8 mph N/A   Scattered Clouds
4:13 AM 33.8 °F 21.9 °F 21.2 °F 60% 29.75 in 10.0 mi SW 21.9 mph 25.3 mph N/A   Overcast
4:33 AM 33.8 °F 22.2 °F 23.0 °F 65% 29.74 in 10.0 mi SW 20.7 mph 26.5 mph N/A   Overcast
4:54 AM 33.8 °F 22.8 °F 23.0 °F 65% 29.75 in 10.0 mi SW 18.4 mph 23.0 mph N/A   Overcast
5:13 AM 33.8 °F 21.6 °F 24.8 °F 70% 29.74 in 10.0 mi SW 23.0 mph - N/A   Overcast
5:33 AM 33.8 °F 23.2 °F 24.8 °F 70% 29.75 in 10.0 mi SW 17.3 mph 24.2 mph N/A   Mostly Cloudy
5:54 AM 33.8 °F 22.8 °F 24.8 °F 70% 29.75 in 10.0 mi SW 18.4 mph 23.0 mph N/A   Mostly Cloudy
6:13 AM 33.8 °F 23.2 °F 24.8 °F 70% 29.76 in 10.0 mi SW 17.3 mph - N/A   Overcast
6:33 AM 33.8 °F 23.5 °F 24.8 °F 70% 29.77 in 10.0 mi SW 16.1 mph - N/A   Overcast
6:54 AM 33.8 °F 23.9 °F 26.6 °F 75% 29.77 in 10.0 mi SW 15.0 mph 20.7 mph N/A   Overcast
7:13 AM 33.8 °F 23.9 °F 26.6 °F 75% 29.78 in 10.0 mi SW 15.0 mph 20.7 mph N/A   Overcast
7:33 AM 35.6 °F 27.1 °F 26.6 °F 70% 29.78 in 10.0 mi SW 12.7 mph - N/A   Overcast
7:54 AM 35.6 °F 26.2 °F 26.6 °F 70% 29.79 in 10.0 mi SW 15.0 mph - N/A   Overcast
8:13 AM 35.6 °F 26.6 °F 26.6 °F 70% 29.79 in 10.0 mi SW 13.8 mph - N/A   Overcast
8:34 AM 35.6 °F 26.6 °F 28.4 °F 75% 29.80 in 10.0 mi SW 13.8 mph - N/A   Mostly Cloudy
8:53 AM 35.6 °F 26.2 °F 28.4 °F 75% 29.81 in 10.0 mi SW 15.0 mph - N/A   Mostly Cloudy
9:13 AM 37.4 °F 28.9 °F 28.4 °F 70% 29.81 in 10.0 mi WSW 13.8 mph - N/A   Mostly Cloudy
9:34 AM 37.4 °F 29.8 °F 28.4 °F 70% 29.82 in 10.0 mi WSW 11.5 mph - N/A   Scattered Clouds
9:53 AM 37.4 °F 28.9 °F 28.4 °F 70% 29.82 in 10.0 mi WSW 13.8 mph 18.4 mph N/A   Mostly Cloudy
10:13 AM 37.4 °F 29.3 °F 26.6 °F 65% 29.83 in 10.0 mi West 12.7 mph 19.6 mph N/A   Overcast
10:34 AM 37.4 °F 28.2 °F 26.6 °F 65% 29.83 in 10.0 mi WNW 16.1 mph 21.9 mph N/A   Overcast
10:53 AM 37.4 °F 28.2 °F 26.6 °F 65% 29.83 in 10.0 mi WNW 16.1 mph - N/A   Overcast
11:14 AM 37.4 °F 27.2 °F 26.6 °F 65% 29.83 in 10.0 mi West 19.6 mph - N/A   Overcast
11:33 AM 37.4 °F 27.8 °F 24.8 °F 60% 29.83 in 10.0 mi West 17.3 mph 25.3 mph N/A   Overcast
11:54 AM 37.4 °F 27.8 °F 24.8 °F 60% 29.83 in 10.0 mi West 17.3 mph 27.6 mph N/A   Overcast
12:13 PM 37.4 °F 27.5 °F 24.8 °F 60% 29.84 in 10.0 mi West 18.4 mph 24.2 mph N/A   Overcast
12:33 PM 37.4 °F 26.9 °F 26.6 °F 65% 29.85 in 10.0 mi West 20.7 mph - N/A   Overcast
12:54 PM 37.4 °F 28.9 °F 26.6 °F 65% 29.85 in 10.0 mi West 13.8 mph - N/A   Overcast
1:14 PM 37.4 °F 28.5 °F 26.6 °F 65% 29.84 in 10.0 mi West 15.0 mph - N/A   Overcast
1:33 PM 37.4 °F 27.8 °F 26.6 °F 65% 29.85 in 10.0 mi West 17.3 mph 25.3 mph N/A   Overcast
1:54 PM 37.4 °F 28.2 °F 26.6 °F 65% 29.85 in 10.0 mi West 16.1 mph - N/A   Overcast
2:13 PM 37.4 °F 29.8 °F 26.6 °F 65% 29.85 in 10.0 mi West 11.5 mph - N/A   Overcast
2:33 PM 37.4 °F 29.8 °F 26.6 °F 65% 29.85 in 10.0 mi West 11.5 mph - N/A   Overcast
2:54 PM 37.4 °F 27.2 °F 26.6 °F 65% 29.86 in 10.0 mi West 19.6 mph 26.5 mph N/A   Overcast
3:13 PM 37.4 °F 28.5 °F 24.8 °F 60% 29.87 in 10.0 mi West 15.0 mph 21.9 mph N/A   Overcast
3:34 PM 37.4 °F 28.2 °F 24.8 °F 60% 29.87 in 10.0 mi West 16.1 mph - N/A   Overcast
3:54 PM 37.4 °F 28.9 °F 24.8 °F 60% 29.88 in 10.0 mi West 13.8 mph 19.6 mph N/A   Overcast
4:13 PM 37.4 °F 29.8 °F 24.8 °F 60% 29.88 in 10.0 mi West 11.5 mph - N/A   Overcast
4:34 PM 37.4 °F 28.5 °F 24.8 °F 60% 29.88 in 10.0 mi West 15.0 mph 21.9 mph N/A   Overcast
4:53 PM 37.4 °F 29.8 °F 24.8 °F 60% 29.88 in 10.0 mi WSW 11.5 mph - N/A   Overcast
5:14 PM 37.4 °F 27.2 °F 26.6 °F 65% 29.89 in 10.0 mi West 19.6 mph 27.6 mph N/A   Overcast
5:33 PM 35.6 °F 27.1 °F 28.4 °F 75% 29.90 in 10.0 mi West 12.7 mph - N/A   Overcast
5:53 PM 33.8 °F 21.9 °F 28.4 °F 81% 29.91 in 2.5 mi West 21.9 mph 28.8 mph N/A   Overcast
6:14 PM 33.8 °F 22.8 °F 28.4 °F 81% 29.91 in 10.0 mi West 18.4 mph - N/A   Overcast
6:33 PM 33.8 °F 22.5 °F 26.6 °F 75% 29.92 in 10.0 mi West 19.6 mph 24.2 mph N/A   Overcast
6:53 PM 33.8 °F 22.8 °F 24.8 °F 70% 29.92 in 10.0 mi West 18.4 mph 26.5 mph N/A   Overcast
7:14 PM 33.8 °F 21.9 °F 21.2 °F 60% 29.93 in 10.0 mi West 21.9 mph 26.5 mph N/A   Overcast
7:33 PM 33.8 °F 22.8 °F 21.2 °F 60% 29.94 in 10.0 mi West 18.4 mph - N/A   Overcast
7:53 PM 33.8 °F 22.2 °F 21.2 °F 60% 29.94 in 10.0 mi WNW 20.7 mph 27.6 mph N/A   Overcast
8:13 PM 33.8 °F 21.9 °F 21.2 °F 60% 29.94 in 10.0 mi WNW 21.9 mph 26.5 mph N/A   Overcast
8:33 PM 33.8 °F 23.2 °F 21.2 °F 60% 29.94 in 10.0 mi West 17.3 mph - N/A   Overcast
8:53 PM 32.0 °F 19.5 °F 19.4 °F 60% 29.95 in 10.0 mi West 21.9 mph - N/A   Overcast
9:13 PM 32.0 °F 20.1 °F 17.6 °F 55% 29.95 in 10.0 mi WNW 19.6 mph - N/A   Overcast
9:34 PM 30.2 °F 17.4 °F 19.4 °F 64% 29.96 in 10.0 mi West 20.7 mph 25.3 mph N/A   Overcast
9:53 PM 30.2 °F 16.5 °F 19.4 °F 64% 29.96 in 10.0 mi WNW 24.2 mph 28.8 mph N/A   Overcast
10:13 PM 30.2 °F 17.1 °F 17.6 °F 60% 29.98 in 10.0 mi WNW 21.9 mph 26.5 mph N/A   Overcast
10:34 PM 28.4 °F 14.4 °F 17.6 °F 64% 29.98 in 10.0 mi WNW 23.0 mph - N/A Snow Snow
10:53 PM 28.4 °F 13.8 °F 17.6 °F 64% 29.99 in 7.0 mi WNW 25.3 mph - N/A Snow Light Snow
11:13 PM 28.4 °F 15.4 °F 15.8 °F 59% 30.00 in 10.0 mi WNW 19.6 mph 31.1 mph N/A   Overcast
11:34 PM 26.6 °F 11.7 °F 15.8 °F 64% 30.01 in 10.0 mi WNW 24.2 mph 29.9 mph N/A   Overcast
11:53 PM 26.6 °F 11.7 °F 12.2 °F 55% 30.03 in 10.0 mi WNW 24.2 mph 29.9 mph N/A   Overcast